Regional Weather Roundup
Issued by NWS

Home | Current Version | Previous Version | Text Only | Print | Product List | Glossary On
Versions: 1 2 3 4 5 6 7 8 9 10 11 12 13 14 15 16 17 18 19 20 21 22 23 24 25 26 27 28 29 30 31 32 33 34 35 36 37 38 39 40 41 42 43 44 45 46 47 48 49 50
069
ASUS43 KMKX 191021
RWRWI

WISCONSIN REGIONAL WEATHER ROUNDUP
NATIONAL WEATHER SERVICE MILWAUKEE/SULLIVAN WI
500 AM CDT SAT AUG 19 2017

NOTE: "FAIR" INDICATES FEW OR NO CLOUDS BELOW 12,000 FEET WITH NO
SIGNIFICANT WEATHER AND/OR OBSTRUCTIONS TO VISIBILITY.

WIZ001-002-006>008-014>016-023>028-191100-
NORTHWEST WISCONSIN

CITY           SKY/WX    TMP DP  RH WIND       PRES   REMARKS
SUPERIOR ARPT    N/A     55  55 100 SW7       29.86S
ASHLAND        CLEAR     59  56  89 SW8       29.86S
HAYWARD        FOG       58  57  97 S5        29.91S VSB 3/4
SIREN          CLEAR     56  56  98 CALM      29.91S
CUMBERLAND       N/A     55  54  94 CALM      29.92S FOG
RICE LAKE      FOG       55  54  97 CALM      29.93S VSB<1/4
CHETEK         FOG       55  55 100 CALM      29.92S VSB 1/4
LADYSMITH      FOG       58  57  97 CALM      29.93S VSB 1/4
EAU CLAIRE     FOG       57  56  96 CALM      29.91S VSB 1/4
MENOMONIE      FOG       55  55  99 CALM      29.92S VSB<1/4
NEW RICHMOND   FOG       55  55 100 CALM      29.92S VSB 1/2
OSCEOLA        FOG       53  53 100 CALM      29.94F VSB 1/4
$$

WIZ003>005-009-010-017-018-191100-
NORTH CENTRAL WISCONSIN

CITY           SKY/WX    TMP DP  RH WIND       PRES   REMARKS
MANITOWISH WTR FOG       51  51 100 SW3       29.89S VSB 1/4
ARBOR VITAE    CLEAR     58  57  96 W3        29.90R FOG
WOODRUFF       CLEAR     58  57  96 W3        29.90R FOG
RHINELANDER    CLOUDY    59  59 100 W7        29.91R FOG
EAGLE RIVER    CLEAR     57  57 100 W3        29.89R FOG
LAND O LAKES   MOCLDY    58  58 100 CALM      29.90S FOG
PHILLIPS       CLOUDY    59  59 100 CALM      29.91R
TOMAHAWK         N/A     60  59  97 W5        29.91S FOG
MEDFORD        FOG       59  59  99 W6        29.92S VSB 3/4
MERRILL        CLOUDY    63  63 100 W10       29.92R FOG
$$

WIZ029-030-035-036-043>047-191100-
CENTRAL WISCONSIN

CITY           SKY/WX    TMP DP  RH WIND       PRES   REMARKS
WAUSAU         CLOUDY    63  62  97 NW9       29.90S
MOSINEE        CLOUDY    61  61 100 W8        29.93R FOG
MARSHFIELD     CLEAR     59  57  93 NW5       29.92R FOG
STEVENS POINT  CLOUDY    59  59 100 CALM      29.93S FOG
WAUPACA        CLOUDY    65  64  97 W5        29.92R
WAUTOMA        PTCLDY    59  59 100 CALM      29.93R FOG
WISC RAPIDS    PTCLDY    60  59  96 W3        29.93S FOG
CAMP DOUGLAS   FOG       52  52 100 CALM      29.93R VSB 1/2
$$

WIZ011>013-019>022-031-037>040-048>050-191100-
NORTHEAST WISCONSIN

CITY           SKY/WX    TMP DP  RH WIND       PRES   REMARKS
ANTIGO         FOG       59  59 100 W8        29.92R VSB 1/2
SHAWANO        CLOUDY    62  60  93 W5        29.89R FOG
OCONTO         CLEAR     56  56  99 W6        29.86S
STURGEON BAY   CLEAR     59  57  93 SW5       29.88R
GREEN BAY      CLEAR     58  58 100 W6        29.88S
MANITOWOC      CLOUDY    62  59  90 W3        29.90R
APPLETON       FOG       61  61 100 W9        29.89S VSB 1/4
CLINTONVILLE   CLOUDY    61  61 100 W5        29.90R FOG
OSHKOSH        CLOUDY    63  62  97 W8        29.90S FOG
$$

WIZ032>034-041-042-053>061-191100-
SOUTHWEST WISCONSIN

CITY           SKY/WX    TMP DP  RH WIND       PRES   REMARKS
LA CROSSE      CLOUDY    62  60  93 S5        29.93S FOG
SPARTA         FOG       54  54 100 CALM      29.94S VSB 1/4
VIROQUA        MOCLDY    58  58 100 SW3       29.95S VSB 3/4
BOSCOBEL       FOG       60  59  96 CALM      29.94S VSB 1/4
PRAIRIE DU CHI FOG       59  58  97 CALM      29.93S VSB 1/4
PLATTEVILLE    CLEAR     54  54 100 SW6       29.95R
$$

WIZ056-057-062-063-064-067-068-191100-
SOUTH CENTRAL WISCONSIN

CITY           SKY/WX    TMP DP  RH WIND       PRES   REMARKS
REEDSBURG      CLEAR     56  56 100 CALM      29.93R
BARABOO/DELLS  CLEAR     56  55  95 CALM      29.94R FOG
LONE ROCK      FOG       58  58 100 CALM      29.94R VSB 1/4
MINERAL POINT  FOG       55  55 100 CALM      29.94S VSB 1/4
MADISON        PTCLDY    58  57  97 CALM      29.93R FOG
MIDDLETON      CLEAR     58  58 100 CALM      29.93S
WATERTOWN      CLEAR     58  58 100 CALM      29.91S
MONROE         PTCLDY    59  59 100 NW6       29.93S
JANESVILLE     PTCLDY    59  59 100 CALM      29.92S FOG
$$

WIZ051-052-058>065-066-070>072-191100-
SOUTHEAST WISCONSIN

CITY           SKY/WX    TMP DP  RH WIND       PRES   REMARKS
MILWAUKEE      PTCLDY    65  62  90 NW6       29.90R
WAUKESHA       PTCLDY    59  59 100 W5        29.93S
MILWAUKEE/TIMM CLOUDY    61  57  88 CALM      29.91S
RACINE         PTCLDY    62  61  96 NW7       29.92S
KENOSHA        PTCLDY    58  57  97 NW5       29.91S
FOND DU LAC    CLOUDY    63  61  93 W6        29.91S FOG
SHEBOYGAN      CLOUDY    61  61 100 W5        29.90R
WEST BEND      CLOUDY    63  63 100 NW3       29.92R
JUNEAU         CLOUDY    61  61  99 CALM      29.93S FOG
$$

LSZ147-162-191100-
LAKE SUPERIOR

STATION/POSITION TIME  TEMP    WIND        PRES    WAVE
                       AIR SEA DIR/SP/G            HT/PER
                 (UTC) (F)     (DEG/KT/KT) (MB)    (FT/S)
W MID LAKE BUOY  0950   61 60  250/ 14/ 14 1009.1S   1/ 3
DEVILS ISLAND    1000   62     240/ 16/ 20 1010.1R
SAXON HARBOR     0930   64     200/  8/ 15 1010.5S
$$

LMZ867-665-643>646-191100-
LAKE MICHIGAN

STATION/POSITION TIME  TEMP    WIND        PRES    WAVE
                       AIR SEA DIR/SP/G            HT/PER
                 (UTC) (F)     (DEG/KT/KT) (MB)    (FT/S)
S GREEN BAY BUOY 1000   65 70  280/ 10/ 12 1011.2
N MID LAKE BUOY  0950   65 66  290/  8/ 10 1010.9R   1/ 3
NORTHPORT PIER   0940   62     260/  3/  4 1010.5S
KEWAUNEE LAKESHO 0954   61     280/  4/  5 1010.9R
SHEBOYGAN LAKESH 1000   64     260/  7/  8 1012.1R
PORT WASHINGTON  0940   65     300/  4/  8 1013.2S
ATWATER BUOY     0939   66 70  300/  8/ 10 1012.8R
MILWAUKEE LAKESH 1000   65     310/  5/  8   N/A
S MID LAKE BUOY  0950   69 71  350/ 12/ 14 1011.9R   2/ 4
KENOSHA   LAKESH 1000   63     290/ 10/ 12 1012.5
$$

TC  - TEMPERATURE IN CELSIUS
VSB - VISIBILITY IN STATUTE MILES
WCI - WIND CHILL INDEX
HX  - HEAT INDEX





USA.gov is the U.S. government's official web portal to all federal, state and local government web resources and services.